Orbital Elements at Epoch 2459200.5 (2020-Dec-17.0) TDB
Reference: JPL 28 (heliocentric ecliptic J2000)
Element | Value | Uncertainty (1-sigma) | Units |
e | .08818738931249034 | 3.1458e-08 | |
a | 2.251632009363103 | 5.9073e-09 | au |
q | 2.053066460764934 | 7.0247e-08 | au |
i | 2.22370543048849 | 3.0619e-06 | deg |
node | 246.5260273148574 | 9.4525e-05 | deg |
peri | 224.2030168727204 | 9.6455e-05 | deg |
M | 6.149209742006235 | 1.9052e-05 | deg |
tp | 2459179.420449116928 (2020-Nov-25.92044912) | 6.5312e-05 | TDB |
period | 1234.083506058766 3.38 | 4.8566e-06 1.33e-08 | d yr |
n | .2917144571113465 | 1.148e-09 | deg/d |
Q | 2.450197557961271 | 6.4283e-09 | au |
|
| | Orbit Determination Parameters
Additional Information
|